Location: Chervonnoye
(48.6000°N, 34.4000°E)
Time: 14:07:40
(UTC+00:00)

Cosmos 2292 - Pass Details

Date: 23 November 2020
Orbit: 395 x 1697 km, 83.0° (Epoch: 27 January)

Event Time Altitude Azimuth Distance (km) Brightness Sun altitude
Rises 15:04:06 0° 178° (S) 2,290 8.2 -11.3°
Reaches altitude 10° 15:05:59 10° 174° (S) 1,457 7.1 -11.6°
Maximum altitude 15:08:59 57° 95° (E) 519 4.4 -12.1°
Drops below altitude 10° 15:12:31 10° 16° (NNE) 1,715 7.0 -12.6°
Enters shadow 15:14:51 - 12° (NNE) 2,733 8.1 -13.0°
